Location: Kailua
(21.4020°N, 157.7390°W)
Time: 20:32:34
(UTC-10:00)

Cosmos 2297 Rocket - Visible Passes

Search period start: 01 August 2014 00:00
Search period end: 11 August 2014 00:00
Orbit: 841 x 842 km, 71.0° (Epoch: 01 August)

Date Brightness Start Highest point End Pass type
(mag) Time Alt. Az. Time Alt. Az. Time Alt. Az.
01 Aug 4.1 22:12:42 24° N 22:12:42 24° N 22:14:53 10° N visible
02 Aug 3.5 21:56:43 34° N 21:56:43 34° N 21:59:55 10° N visible
03 Aug 2.7 21:40:14 56° NNW 21:40:14 56° NNW 21:44:57 10° N visible
04 Aug 2.4 21:22:39 44° SW 21:24:22 68° WNW 21:29:59 10° N visible
05 Aug 2.3 21:03:46 10° SSW 21:09:22 73° WNW 21:15:00 10° NNE visible
06 Aug 2.2 20:48:45 10° SSW 20:54:23 78° WNW 21:00:01 10° NNE visible
07 Aug 2.2 20:33:45 10° SSW 20:39:23 83° WNW 20:45:02 10° NNE visible
08 Aug 2.2 20:18:45 10° SSW 20:24:23 88° WNW 20:30:02 10° NNE visible
09 Aug 2.1 20:03:46 10° SSW 20:09:24 87° ESE 20:15:03 10° NNE visible
10 Aug 2.1 19:48:46 10° SSW 19:54:24 82° ESE 20:00:02 10° NNE visible
